This demonstration page uses our WeatherBlox Daily Observations layout. Learn more.

Left ArrowRight Arrow

Hourly Observations for March 9, 2015

Temp ( °F °C ) Dew Point ( °F °C ) Humidity (%) Winds ( mph kmh ) Pressure ( in mb ) Visibility ( mi km ) Precip ( " mm )
12:53 am 00:53 Clear 37 2.8 23 -5 57 57 SW 16 26 29.92 1013 10 16 N/A
1:53 am 01:53 Clear 36 2.2 23 -5 59 59 SW 15 24 29.90 1013 10 16 N/A
2:53 am 02:53 Clear 35 1.7 23 -5 61 61 W 12 19 29.90 1013 10 16 N/A
3:53 am 03:53 Clear 37 2.8 24 -4.4 59 59 SW 17 28 29.89 1012 10 16 N/A
4:53 am 04:53 Clear 35 1.7 24 -4.4 64 64 WSW 13 20 29.89 1012 10 16 N/A
5:53 am 05:53 Clear 33 0.6 23 -5 66 66 WSW 13 20 29.90 1012 10 16 N/A
6:53 am 06:53 Clear 30 -1.1 23 -5 75 75 WSW 13 20 29.92 1013 10 16 N/A
7:53 am 07:53 Sunny 34 1.1 24 -4.4 67 67 SW 14 22 29.92 1013 10 16 N/A
8:53 am 08:53 Sunny 41 5 26 -3.3 55 55 SW 15 24 29.91 1013 10 16 N/A
9:53 am 09:53 Sunny 48 8.9 26 -3.3 42 42 SSW 23 37 29.90 1013 10 16 N/A
10:53 am 10:53 Sunny 51 10.6 26 -3.3 38 38 WSW 21 33 29.89 1012 10 16 N/A
11:53 am 11:53 Sunny 54 12.2 28 -2.2 37 37 SW 26 43 29.86 1011 10 16 N/A
12:53 pm 12:53 Sunny 61 16 28 -2 29 29 W 22 35 29.74 1007 10 16 N/A
1:53 pm 13:53 Sunny 63 17.2 27 -2.8 26 26 W 25 41 29.79 1009 10 16 N/A
2:53 pm 14:53 Sunny 66 18.9 27 -2.8 23 23 WSW 26 43 29.74 1007 10 16 N/A
3:53 pm 15:53 Sunny 65 18.3 24 -4.4 21 21 W 23 37 29.73 1007 10 16 N/A
4:53 pm 16:53 Sunny 63 17.2 24 -4.4 23 23 W 28 44 29.73 1007 10 16 N/A
5:53 pm 17:53 Sunny 61 16.1 25 -3.9 25 25 W 26 43 29.75 1007 10 16 N/A
6:53 pm 18:53 Sunny 56 13.3 25 -3.9 30 30 WSW 13 20 29.78 1008 10 16 N/A
7:53 pm 19:53 Clear 48 8.9 26 -3.3 42 42 SW 15 24 29.80 1009 10 16 N/A
8:53 pm 20:53 Clear 42 5.6 25 -3.9 51 51 SW 16 26 29.80 1009 10 16 N/A
9:53 pm 21:53 Clear 43 6.1 25 -3.9 49 49 SW 16 26 29.80 1009 10 16 N/A
10:53 pm 22:53 Clear 36 2.2 24 -4.4 62 62 N 6 9 29.85 1011 10 16 N/A
11:53 pm 23:53 Clear 35 1.7 24 -4.4 64 64 WSW 7 11 29.88 1012 10 16 N/A

Powered by AerisWeather